Modesto City Co-Harry Sham Field
KMOD : now visible

Airfield :











YOU CAN JOIN US ON...

 
LOGIN :

Register | Disclaimer

   EN    FR    IT 

 









Legend :    VFR   Marginal VFR   IFR   Intensive IFR   Very Intensive IFR
Visi :
Ceiling :
>= 8 km
>= 3000ft
5 to 8 km
1000 to 3000 ft
1500m to 5 km
500 to 1000 ft
800 to 1500m
200 to 500 ft
< 800m
< 200 ft
Symbols :   Thunderstorms  Fog  Heavy snow  Heavy precipitations  Wind > 20 kt






- Airport Elevation : 97 ft
- IATA code : MOD


KMOD - Modesto City Co-Harry Sham Field

CURRENT METAR :
  • 201653Z 00000KT 9SM CLR 23/12 A2992 RMK AO2 SLP129 T02330122 $

EXPIRED METARs :
  • 201553Z 00000KT 7SM CLR 19/13 A2991 RMK AO2 SLP125 T01940133 $
  • 201453Z 00000KT 7SM CLR 17/14 A2989 RMK AO2 SLP122 T01670139 53012 $

TAF KMOD
Valid from the 20 at 12:00 until the 21 at 12:00 UTC


201125Z 2012/2112 VRB04KT P6SM SKC
FM202300 32007KT P6SM SKC
KZOA FIR / North America



MET'MAP, your aeronautical weather chart ! - Copyright ORBIFLY December 2007 - Disclaimer

ORBIFLY MET'MAP TEAM :

Programming & Development : Alexandra Zaïnal
Concept & original design : Baudouin d'Aumeries
Assistance for programming : Marc-Olivier Méhu
Technical & hardware support : Manuel Goepfert

Contact : metmap@orbifly.com




SOURCES & CREDITS :

   NOAA       Earth
Advisory